SL-8 DEB

Satellite information

Favourite Embed

Satellite Type and Status

DEBRISIN ORBIT

Key statistics

Satellite SL-8 DEB at a glance.

Uptime

15367

Days in orbit

Revolutions

≈ 14.5

Per day

Orbit

LEO

Low Earth Orbit

Inclination

74.1

Latest

Satellite identification and parameters

Extended collection of information and parameters for SL-8 DEB.

Object identification

Identified? True

Debris? True

Object name: SL-8 DEB

International designator: 1983-031C

Object number (NORAD): 14812

Object ID (CCSDS): 14812

Country: COMMONWEALTH OF INDEPENDENT STATES (CIS)

Current information (Y/N): Y

RCS size: SMALL

Orbital parameters

Period: 99.377 minutes

Inclination: 74.0534 deg

SMA: 7106.968 km

Apoapsis: 740.475 km

Periapsis: 717.191 km

RAAN: 103.8976 deg

Eccentricy: 0.0016381

Argument of periapsis: 321.3403 deg

Mean anomaly: 100.8347 deg

Mean motion: 14.49026049 rev/day

Mean motion (dot): 0.00002114 rev/day2

B* drag term: 0.00056338 1/REarth

Two-line elements (TLE)

Creation date: May 8, 2025, 3:01 a.m.

Reference frame: TEME

Reference center: EARTH

Epoch: May 7, 2025, 5:50 p.m. UTC

TLE line 0: 0 SL-8 DEB

TLE line 1: 1 14812U 83031C 25127.74374366 .00002114 00000-0 56338-3 0 9994

TLE line 2: 2 14812 74.0534 103.8976 0016381 321.3403 100.8347 14.49026049193353

Live tracking on map

Real-time ground track for satellite SL-8 DEB.

In-orbit conjunctions

A list of the most updated potential collisions computed for object SL-8 DEB.

Target Orbit TCA Probability of collision Miss distance Type
CZ-6A DEB LEO 2025-02-03 15:03:20 0.0001137293 538.0 (m) DEBRIS
DMSP 5D-2 F15 DEB SSO 2024-11-15 06:00:52 0.0001976353 952.0 (m) DEBRIS
FENGYUN 1C DEB SSO 2024-11-11 00:51:26 0.0009132605 324.0 (m) DEBRIS
FENGYUN 1C DEB SSO 2024-09-25 04:15:06 0.0006033559 84.0 (m) DEBRIS

Associated space launch

Military communications satellite

SL-8 DEB was lifted into orbit during the mission ‘Kosmos-3M | Strela-2M 31’, on board a Kosmos-3M space rocket.

The launch took place on April 12, 1983, 6:20 p.m. from 132/2.

For more information about the launch, click the button.

Launch to space Kosmos-3M | Strela-2M 31
Kosmos-3M | Strela-2M 31

Agency: N/A

Status: Launch Successful

Launch date: April 12, 1983, 6:20 p.m. UTC

Rocket: Kosmos-3M

Launch pad: 132/2

Location: Plesetsk Cosmodrome, Russian Federation

...

Latest news about this satellite

There are no fresh news available about this satellite. Check back as we update our databases every day.


Newsletter sign-up

Weekly statistics, charts and insights to help you stay on top of the space industry.